Weather observations for the past three days for
Camp Springs / Andrews Air Force Base
Imperial (Metric)
Date Time (edt) Wind (mph) Vis. (mi.) Weather Sky Cond. Temperature (ºF) Relative Humidity Wind Chill (°F) Heat Index (°F) Pressure Precipitation (in)
Air Dwpt 6 hour altimeter (in) sea level (mb) 1 hr 3 hr 6 hr
Max. Min.
15 12:55 W 6 G 16 10.00 A Few Clouds FEW180 FEW200 97.2 63.1 33% 99 29.9 1012.8
15 11:55 NW 10 10.00 Fair CLR 95.7 63.7 35% 98 29.92 1013.5
15 10:55 W 13 10.00 Fair CLR 93.7 65.7 40% 97 29.92 1013.5
15 09:55 NW 14 G 24 10.00 Fair CLR 91.6 65.8 43% 94 29.93 1013.9
15 08:55 NW 10 10.00 Fair CLR 88.7 64.6 45% 90 29.93 1013.9
15 07:55 NW 9 10.00 Fair CLR 85.5 64.6 85.5 79.7 50% 87 29.93 1013.9
15 06:55 NW 8 10.00 Fair CLR 82.2 66.4 59% 85 29.93 1013.9
15 05:55 W 5 10.00 A Few Clouds FEW150 79.9 71.2 75% 83 29.91 1013.2
15 04:55 SW 5 10.00 Fair CLR 79.9 72.7 79% 84 29.89 1012.5
15 03:55 SW 8 10.00 Fair CLR 80.8 73.2 78% 86 29.88 1012.2
15 02:55 SW 9 10.00 Fair CLR 81.9 73.4 76% 87 29.88 1012.1
15 01:55 S 8 10.00 Fair CLR 81.5 74.3 86.4 80.6 79% 87 29.89 1012.5
15 00:55 S 7 10.00 Fair CLR 81.1 74.7 81% 87 29.89 1012.5
14 23:55 S 7 10.00 A Few Clouds FEW095 82.2 75 79% 89 29.91 1013.2
14 22:55 S 6 10.00 Fair CLR 81.1 73.9 79% 87 29.91 1013.2
14 21:55 SE 3 10.00 Fair CLR 81.1 74.3 80% 87 29.92 1013.5
14 20:55 SE 3 10.00 Fair CLR 84.2 74.1 72% 92 29.93 1013.9
14 19:55 SE 5 10.00 Fair CLR 86.5 72.9 99.5 86.5 64% 94 29.93 1013.9
14 18:55 SE 8 10.00 Fair CLR 88.7 72.9 60% 96 29.93 1013.9
14 17:55 SE 12 10.00 Fair CLR 87.8 70.5 57% 93 29.93 1013.9
14 16:55 E 9 10.00 Partly Cloudy SCT200 93 67.8 44% 97 29.93 1013.9
14 15:55 W 12 G 18 10.00 Fair CLR 98.8 61.9 30% 100 29.94 1014.2
14 14:55 SW 10 G 21 10.00 A Few Clouds FEW200 99 60.1 28% 99 29.96 1014.9
14 13:55 SW 9 10.00 Partly Cloudy FEW120 FEW160 SCT190 97.5 65.1 98.1 83.1 35% 101 29.98 1015.6
14 12:55 W 5 10.00 Partly Cloudy FEW060 SCT160 SCT180 96.3 64 35% 98 30 1016.2
14 11:55 W 6 10.00 A Few Clouds FEW190 94.5 68.4 43% 99 30.02 1016.9
14 10:55 W 6 10.00 Fair CLR 93.4 68.7 45% 98 30.03 1017.3
14 09:55 SW 7 10.00 Fair CLR 89.6 69.1 51% 94 30.04 1017.6
14 08:55 SW 7 10.00 Fair CLR 87.3 72.1 61% 94 30.04 1017.6
14 07:55 SW 5 10.00 Fair CLR 83.1 74.3 83.1 72.9 75% 90 30.05 1018.0
14 06:55 Calm 10.00 Fair CLR 76.3 73.8 92% 76 30.04 1017.6
14 05:55 S 3 10.00 Fair CLR 73.8 71.6 93% 30.04 1017.6
14 04:55 Calm 10.00 Fair CLR 75.6 73.4 93% 75 30.04 1017.6
14 03:55 SW 6 10.00 Fair CLR 77.7 73.8 88% 80 30.04 1017.6
14 02:55 S 3 10.00 Fair CLR 75.9 72.7 90% 76 30.05 1018.0
14 01:55 SE 3 10.00 Fair CLR 76.1 72.1 84.9 75 88% 76 30.06 1018.3
14 00:55 S 5 10.00 Partly Cloudy SCT130 78.3 73 84% 81 30.07 1018.7
13 23:55 S 3 10.00 A Few Clouds FEW130 77.7 72.9 85% 80 30.07 1018.7
13 22:55 Calm 10.00 Fair CLR 77.4 71.8 83% 79 30.08 1019.0
13 21:55 Calm 10.00 Fair CLR 79.9 71.6 76% 83 30.08 1019.0
13 20:55 S 2 10.00 A Few Clouds FEW150 82.2 70.9 69% 87 30.07 1018.7
13 19:55 SE 8 10.00 A Few Clouds FEW150 85.1 71.1 94.1 85.1 63% 90 30.06 1018.3
13 18:55 E 12 10.00 A Few Clouds FEW120 88 72.7 61% 95 30.06 1018.3
13 17:55 E 10 10.00 A Few Clouds FEW055 92.7 69.4 47% 98 30.04 1017.6
13 16:55 E 3 10.00 A Few Clouds FEW040 FEW070 92.8 65.7 41% 96 30.05 1018.0
13 15:55 E 5 10.00 A Few Clouds FEW048 FEW190 92.1 67.6 45% 96 30.06 1018.3
13 14:55 NW 3 10.00 Partly Cloudy FEW044 FEW130 SCT160 91.6 69.1 48% 97 30.08 1019.0
13 13:55 NE 7 10.00 Partly Cloudy FEW150 SCT180 SCT200 87.4 69.3 88.2 76.3 55% 92 30.09 1019.4
13 12:55 NW 6 10.00 Mostly Cloudy FEW027 FEW070 SCT140 BKN180 BKN210 84.2 70.2 63% 89 30.11 1020.1
13 11:55 N 3 10.00 Mostly Cloudy FEW019 FEW060 SCT120 SCT160 SCT190 BKN210 82.2 71.4 70% 87 30.13 1020.7
13 10:55 N 5 10.00 Mostly Cloudy SCT030 BKN050 80.1 70.9 74% 84 30.15 1021.4
13 09:55 N 5 10.00 Mostly Cloudy BKN017 BKN060 80.1 71.4 75% 84 30.14 1021.1
13 08:55 Calm 10.00 Mostly Cloudy BKN018 BKN050 77.2 72 84% 79 30.15 1021.4
13 07:55 Calm 10.00 Mostly Cloudy BKN015 BKN030 76.5 71.6 76.6 72.1 85% 77 30.15 1021.4
13 06:55 Calm 10.00 Mostly Cloudy BKN015 BKN050 74.3 71.4 91% 30.15 1021.4
13 05:55 Calm 10.00 Fair CLR 73 70.9 93% 30.14 1021.1
13 04:55 Calm 10.00 A Few Clouds FEW006 73.8 71.2 92% 30.13 1020.8
13 03:55 S 3 10.00 Partly Cloudy SCT007 73.8 71.2 92% 30.12 1020.4
13 02:55 Calm 10.00 Overcast OVC009 72.7 70.9 94% 30.13 1020.8
13 01:55 Calm 10.00 Partly Cloudy SCT007 73.6 70.7 78.4 73 91% 30.15 1021.5 0.01
13 00:55 S 6 10.00 Partly Cloudy SCT050 73.6 70.7 91% 30.15 1021.5
12 23:55 S 10 10.00 Fair CLR 74.3 71.1 90% 30.15 1021.4
12 22:55 SE 7 10.00 Mostly Cloudy FEW012 BKN110 74.8 71.6 90% 30.15 1021.5 0.01
12 21:55 S 7 10.00 Partly Cloudy SCT030 75.9 71.8 87% 76 30.15 1021.5 0.01
12 20:55 S 7 10.00 Mostly Cloudy BKN033 77.7 73.2 86% 80 30.14 1021.1
12 19:55 SE 5 10.00 Overcast BKN010 OVC015 78.4 73.8 82.4 77.5 86% 81 30.15 1021.4
12 18:55 E 6 10.00 Fair CLR 79.3 72.9 81% 83 30.13 1020.8
12 17:55 Calm 10.00 Mostly Cloudy BKN025 BKN034 79.3 71.8 78% 83 30.14 1021.1
12 16:55 SE 8 10.00 Partly Cloudy SCT021 SCT190 80.8 70.9 72% 85 30.12 1020.4
12 15:55 NE 8 10.00 Mostly Cloudy SCT022 SCT110 SCT140 SCT160 BKN190 81.3 70.5 70% 85 30.12 1020.4
12 14:56 E 7 10.00 Mostly Cloudy SCT013 BKN020 BKN190 79.7 72.9 80% 84 30.13 1020.7
12 14:55 E 6 10.00 Mostly Cloudy SCT020 BKN025 79.7 72.9 80% 84 30.13 1020.7
12 13:56 SE 5 10.00 Light Rain SCT020 BKN050 77.7 72.5 77.9 74.8 84% 80 30.15 1021.4 0.01
12 13:55 SE 6 10.00 Light Rain SCT020 FEW190 77.7 72.5 77.9 74.8 84% 80 30.15 1021.4 0.01
Date Time (edt) Wind (mph) Vis. (mi.) Weather Sky Cond. Air Dwpt Max. Min. Relative Humidity Wind Chill (°F) Heat Index (°F) altimeter (in) sea level (mb) 1 hr 3 hr 6 hr
6 hour
Temperature (ºF) Pressure Precipitation (in)